User: anonymous   Login
Location: Castro Valley
(37.6940°N, 122.0850°W)
Time: 10:18:04
(UTC-07:00)
Language:

PANSAT - Orbit

View from above orbital plane
View from above orbital plane
View from above satellite
View from above satellite

Ground track
Ground track

The orbit data is extracted from the following two-line orbital elements,

1 25520U 98064B   15239.18537172  .00001622  00000-0  52158-4 0  9991
2 25520 028.4572 154.8159 0005025 254.6950 224.0936 15.26557634933263
Epoch (UTC): 27 August 2015 04:26:56
Eccentricity: 0.0005025
inclination: 28.4572°
perigee height: 482 km
apogee height: 489 km
right ascension of ascending node: 154.8159°
argument of perigee: 254.6950°
revolutions per day: 15.26557634
mean anomaly at epoch: 224.0936°
orbit number at epoch: 93326

The dashed part of the orbit path shows where the satellite is in the earth's shadow,  

DLR